Location: Artiguedieu
(43.5000°N, 0.5454°E)
Time: 19:34:43
(UTC+00:00)

Explorer 7 - Pass Details

Date: 08 August 2021
Orbit: 484 x 676 km, 50.3° (Epoch: 18 September)

Event Time Altitude Azimuth Distance (km) Brightness Sun altitude
Rises 09:05:24 0° 291° (WNW) 2,655 9.9 43.4°
Reaches altitude 10° 09:07:53 10° 276° (W) 1,795 9.1 43.8°
Maximum altitude 09:11:08 23° 223° (SW) 1,211 8.6 44.4°
Drops below altitude 10° 09:14:30 10° 171° (S) 1,881 10.0 44.9°
Sets 09:17:11 0° 157° (SSE) 2,817 10.9 45.4°
